Location: Park Creek Village Mobile Home Park
(38.2885°N, 122.4714°W)
Time: 16:45:08
(UTC+00:00)

USA 234 - Pass Details

Date: 14 December 2019
Orbit: 1099 x 1108 km, 123.0° (Epoch: 16 January)

Event Time Altitude Azimuth Distance (km) Brightness Sun altitude
Rises 14:16:25 0° 41° (NE) 3,921 6.4 -11.9°
Reaches altitude 10° 14:19:11 10° 31° (NNE) 2,963 5.7 -11.4°
Maximum altitude 14:24:44 31° 333° (NNW) 1,840 4.1 -10.4°
Drops below altitude 10° 14:30:16 10° 275° (W) 2,961 4.9 -9.4°
Enters shadow 14:30:28 - 274° (W) 3,027 5.0 -9.4°
